Location: Brahman Valley
(40.6513°N, 111.8855°W)
Time: 21:26:07
(UTC+00:00)

Vanguard 2 - Pass Details

Date: 20 May 2021
Orbit: 552 x 2937 km, 32.9° (Epoch: 14 June)

Event Time Altitude Azimuth Distance (km) Brightness Sun altitude
Rises 11:53:00 0° 247° (WSW) 3,629 - -3.0°
Exits shadow 11:53:45 - 245° (WSW) 3,382 10.1 -2.9°
Reaches altitude 10° 11:55:14 10° 241° (WSW) 2,910 9.8 -2.6°
Maximum altitude 12:02:16 51° 167° (SSE) 1,818 9.4 -1.5°
Drops below altitude 10° 12:13:59 10° 97° (E) 4,734 12.6 0.5°
Sets 12:18:39 0° 94° (E) 6,086 13.3 1.3°
